Change the Weather History Date:

Saturday, February 1, 2014

  Actual Average Record
Temperature  
Mean Temperature 74 °F 71 °F  
Max Temperature 82 °F 79 °F 88 °F (1977)
Min Temperature 65 °F 63 °F 55 °F (1965)
Degree Days  
Heating Degree Days 0 0  
Month to date heating degree days 0 0  
Since 1 July heating degree days 0 0  
Cooling Degree Days 9 6  
Month to date cooling degree days 9 6  
Year to date cooling degree days 221 204  
Growing Degree Days 23 (Base 50)    
Moisture  
Dew Point 67 °F    
Average Humidity 84    
Maximum Humidity 100    
Minimum Humidity 67    
Precipitation  
Precipitation 0.00 in 0.35 in 10.60 in (1969)
Month to date precipitation 0.00 0.35  
Year to date precipitation 5.66 9.61  
Snow  
Snow 0.00 in - - ()
Month to date snowfall 0.0  
Since 1 July snowfall 0.0  
Snow Depth 0.00 in    
Sea Level Pressure  
Sea Level Pressure 29.86 in    
Wind  
Wind Speed 7 mph (West)    
Max Wind Speed 18 mph    
Max Gust Speed 24 mph    
Visibility 10 miles    
Events      
T = Trace of Precipitation, MM = Missing Value Source: NWS Daily Summary

Daily Weather History Graph

Daily Weather History Graph

Search for Another Location

Airport or City:

Trip Planner

Search our weather history database for the weather conditions in past years. The results will help you decide how hot, cold, wet, or windy it might be!

Date:

Astronomy

Feb. 01, 2014 Rise Set
Actual Time 6:55 AM HST 6:12 PM HST
Civil Twilight 6:32 AM HST 6:35 PM HST
Nautical Twilight 6:05 AM HST 7:01 PM HST
Astronomical Twilight 5:39 AM HST 7:28 PM HST
Moon 8:16 AM HST (2/1) 8:31 PM HST (2/1)
Length of Visible Light 12h 03m
Length of Day
11h 17m
Waxing Crescent, 6% of the Moon is Illuminated
Feb 1
Waxing Crescent
Feb 6
First Quarter
Feb 14
Full
Feb 22
Last Quarter
Feb 28
New

Hourly Weather History & Observations

Time (HST) Temp. Heat Index Dew Point Humidity Pressure Visibility Wind Dir Wind Speed Gust Speed Precip Events Conditions
12:53 AM 71.1 °F - 69.1 °F 93% 29.87 in 10.0 mi SSE 5.8 mph - N/A   Overcast
1:53 AM 69.1 °F - 68.0 °F 96% 29.85 in 10.0 mi SSW 4.6 mph - N/A   Overcast
2:53 AM 68.0 °F - 66.9 °F 96% 29.84 in 10.0 mi Calm Calm - N/A   Partly Cloudy
3:53 AM 69.1 °F - 68.0 °F 96% 29.83 in 10.0 mi SSE 5.8 mph - N/A   Scattered Clouds
4:21 AM 66.0 °F - 64.0 °F 93% 29.83 in 10.0 mi SW 4.6 mph - N/A   Mostly Cloudy
4:53 AM 64.9 °F - 63.0 °F 93% 29.83 in 10.0 mi SSW 3.5 mph - N/A   Partly Cloudy
5:04 AM 64.9 °F - 63.0 °F 93% 29.84 in 10.0 mi West 3.5 mph - N/A   Partly Cloudy
5:53 AM 66.9 °F - 64.9 °F 93% 29.84 in 10.0 mi SW 4.6 mph - N/A   Mostly Cloudy
6:53 AM 66.9 °F - 62.1 °F 84% 29.86 in 10.0 mi SW 6.9 mph - N/A   Scattered Clouds
7:53 AM 66.9 °F - 62.1 °F 84% 29.88 in 10.0 mi SSW 5.8 mph - N/A   Mostly Cloudy
8:53 AM 71.1 °F - 64.0 °F 78% 29.89 in 10.0 mi Calm Calm - N/A   Scattered Clouds
9:53 AM 75.9 °F - 64.0 °F 67% 29.89 in 10.0 mi NW 5.8 mph - N/A   Scattered Clouds
10:53 AM 79.0 °F - 66.9 °F 66% 29.88 in 10.0 mi North 11.5 mph - N/A   Clear
11:53 AM 80.1 °F 82.7 °F 68.0 °F 67% 29.85 in 10.0 mi North 16.1 mph - N/A   Partly Cloudy
12:53 PM 81.0 °F 84.1 °F 69.1 °F 67% 29.83 in 10.0 mi North 18.4 mph 21.9 mph N/A   Scattered Clouds
1:53 PM 81.0 °F 83.8 °F 68.0 °F 65% 29.81 in 10.0 mi North 16.1 mph - N/A   Scattered Clouds
2:53 PM 81.0 °F 84.1 °F 69.1 °F 67% 29.81 in 10.0 mi North 15.0 mph 21.9 mph N/A   Clear
3:53 PM 80.1 °F 82.9 °F 69.1 °F 69% 29.82 in 10.0 mi North 15.0 mph - N/A   Scattered Clouds
4:53 PM 78.1 °F - 70.0 °F 76% 29.84 in 10.0 mi North 9.2 mph - N/A   Scattered Clouds
5:53 PM 75.9 °F - 70.0 °F 82% 29.86 in 10.0 mi North 9.2 mph - N/A   Mostly Cloudy
6:53 PM 75.9 °F - 70.0 °F 82% 29.88 in 10.0 mi NNE 9.2 mph - N/A   Overcast
7:53 PM 75.0 °F - 70.0 °F 84% 29.90 in 10.0 mi SSW 3.5 mph - N/A   Overcast
8:53 PM 72.0 °F - 69.1 °F 91% 29.92 in 10.0 mi SSW 3.5 mph - N/A   Mostly Cloudy
9:53 PM 71.1 °F - 69.1 °F 93% 29.92 in 10.0 mi Calm Calm - N/A   Clear
10:53 PM 68.0 °F - 68.0 °F 100% 29.93 in 10.0 mi Calm Calm - N/A   Clear
11:53 PM 69.1 °F - 66.9 °F 93% 29.91 in 10.0 mi SSW 3.5 mph - N/A   Partly Cloudy